Simultaneous Nadir Overpasses (SNOs) Predictions

Prediction of SNOs between AQUA and METOP-B Satellite Orbit:

Table of predicted SNOs for the next 14.0 days since TLE Epoch: 6/3/2016
Index Date (AQUA) Time (AQUA) Lat,Lon (AQUA) SZA (AQUA ) Date (METOP-B) Time (METOP-B) Lat,Lon (METOP-B) SZA (METOP-B ) Distance(km) Time Diff (sec)
1 06/04/2016 05:06:42 73.76, 97.74 51.27 06/04/2016 05:05:59 73.77, 97.64 51.28 3.34 43
2 06/04/2016 05:56:09 -73.85, -94.81 128.65 06/04/2016 05:56:39 -73.84, -94.85 128.65 1.26 30
3 06/07/2016 00:40:57 73.79, 164.09 51.02 06/07/2016 00:40:22 73.78, 164.08 51.01 2.09 35
4 06/07/2016 01:30:23 -73.88, -28.45 128.90 06/07/2016 01:31:01 -73.85, -28.41 128.93 3.14 38
5 06/09/2016 20:15:10 73.79,-129.46 50.78 06/09/2016 20:14:44 73.78,-129.49 50.78 1.38 26
6 06/09/2016 21:04:37 -73.87, 38.00 129.14 06/09/2016 21:05:24 -73.86, 38.02 129.16 1.54 47
7 06/12/2016 14:59:46 -73.26, 130.48 129.97 06/12/2016 14:58:38 -73.24, 128.34 129.90 68.53 68
8 06/12/2016 15:49:24 73.80, -63.04 50.60 06/12/2016 15:49:07 73.79, -63.07 50.60 1.71 17
9 06/12/2016 16:38:51 -73.88, 104.43 129.32 06/12/2016 16:39:47 -73.87, 104.45 129.34 1.56 56
10 06/15/2016 10:34:07 -73.64,-163.88 129.70 06/15/2016 10:32:54 -73.59,-164.45 129.71 18.58 73
11 06/15/2016 11:23:38 73.82, 3.36 50.50 06/15/2016 11:23:30 73.79, 3.34 50.47 3.50 8
12 06/15/2016 12:13:05 -73.90, 170.83 129.43 06/15/2016 12:14:10 -73.87, 170.87 129.46 3.22 65
